Location: Bismarck
(46.7731°N, 100.8200°W)
Time: 06:31:23
(UTC-06:00)

Amateur Radio Satellites - All Passes

Search period start: 01 March 2015 06:01
Search period end: 02 March 2015 06:01
Location: Bismarck, 46.7731°N, 100.8200°W

Satellite Date Start Highest point End Downlink Frequencies (MHz)
Time Altitude Azimuth
AO-7 01 Mar 06:19:17 06:27:12 50° 299° (WNW) 06:35:01 29.400- 29.500
MOZHAYETS 4 01 Mar 06:21:12 06:21:58 10° 276° (W) 06:22:28
PRISM 01 Mar 06:26:38 06:30:46 75° 257° (WSW) 06:34:58 437.425
CUBESAT XI-V 01 Mar 06:33:04 06:37:46 76° 258° (WSW) 06:42:30 437.345
Cubesat XI-IV 01 Mar 06:37:18 06:42:20 39° 97° (E) 06:47:22 437.490
CUTE-I 01 Mar 06:46:44 06:51:55 47° 98° (E) 06:57:05 437.470
RS-15 01 Mar 06:48:58 06:59:22 41° 27° (NNE) 07:10:16 29.354- 29.394
PCSat 01 Mar 07:21:36 07:26:41 41° 246° (WSW) 07:31:41 145.827
STRAND 1 01 Mar 07:34:47 07:39:28 34° 265° (W) 07:44:07 437.568
JAS-2 01 Mar 07:38:34 07:43:14 18° 306° (NW) 07:47:49 435.910
AIST 1 01 Mar 07:44:07 07:48:20 50° 94° (E) 07:52:37
BRITE-PL 01 Mar 07:56:52 07:57:50 11° 82° (E) 07:59:04 437.365/2234.400
GONETS M04 01 Mar 07:59:59 08:06:34 24° 58° (ENE) 08:13:26
AO-7 01 Mar 08:13:58 08:18:11 15° 322° (NW) 08:22:06 29.400- 29.500
Cubesat XI-IV 01 Mar 08:17:35 08:22:22 33° 295° (WNW) 08:27:05 437.490
CUTE-I 01 Mar 08:27:15 08:31:49 28° 297° (WNW) 08:36:16 437.470
COMPASS 1 01 Mar 08:35:19 08:36:23 11° 86° (E) 08:37:41 437.405
DOVE 4 01 Mar 08:51:41 08:54:31 17° 89° (E) 08:57:25 437.250
ANTELSAT 01 Mar 08:53:48 08:55:04 11° 59° (ENE) 08:56:31 437.575/2403.000
SEEDS 01 Mar 08:58:20 09:01:43 23° 93° (E) 09:05:10 437.485
CANX-2 01 Mar 08:58:37 09:02:22 30° 95° (E) 09:06:10 2200.000
RS-15 01 Mar 09:01:51 09:13:17 88° 234° (SW) 09:25:13 29.354- 29.394
O/OREOS (USA 219) 01 Mar 09:10:42 09:13:03 14° 100° (E) 09:15:36 437.305
CINEMA 3 01 Mar 09:12:18 09:14:42 15° 88° (E) 09:17:14 145.822/145.860
SO-50 01 Mar 09:12:29 09:15:52 18° 29° (NNE) 09:19:20 436.795
DUCHIFAT 1 01 Mar 09:15:44 09:16:21 10° 58° (ENE) 09:17:10 145.980
CUTE 1.7 + AOD 2 01 Mar 09:17:17 09:21:21 43° 98° (E) 09:25:25 437.475
AIST 1 01 Mar 09:23:20 09:26:22 18° 294° (WNW) 09:29:20
HO-68 01 Mar 09:25:02 09:32:05 56° 101° (E) 09:39:08 435.675
POLYITAN 1 01 Mar 09:31:56 09:34:25 16° 62° (ENE) 09:37:03 437.675
BRITE-PL 01 Mar 09:32:35 09:37:20 85° 284° (WNW) 09:41:41 437.365/2234.400
POPSAT HIP 1 01 Mar 09:33:16 09:35:47 16° 62° (ENE) 09:38:27 437.405
CUBEBUG 2 01 Mar 09:43:36 09:46:29 18° 91° (E) 09:49:27 437.445
GOMX 1 01 Mar 09:45:47 09:50:19 89° 102° (ESE) 09:54:34 467.674
Oscar 11 01 Mar 09:47:52 09:51:36 28° 94° (E) 09:55:23 145.826/435.025
UNISAT 6 01 Mar 09:48:43 09:52:44 36° 69° (ENE) 09:56:44 437.425
DELFI C3 01 Mar 09:49:56 09:53:11 23° 93° (E) 09:56:30 145.870
ISS 01 Mar 09:53:21 09:55:50 21° 139° (SE) 09:58:22 145.825
NANOSAT C BR1 01 Mar 09:55:59 09:59:28 25° 66° (ENE) 10:03:01 145.865
GONETS M04 01 Mar 09:56:00 10:04:48 88° 266° (W) 10:13:36
AAUSAT CUBESAT 2 01 Mar 10:07:13 10:11:25 90° 297° (WNW) 10:15:38 437.432
COMPASS 1 01 Mar 10:08:30 10:12:43 77° 285° (WNW) 10:16:55 437.405
DX 1 01 Mar 10:09:31 10:12:59 23° 93° (E) 10:16:30 434.975-435.025
TIGRISAT 01 Mar 10:14:14 10:18:35 64° 74° (ENE) 10:22:53 435.000
VELOX 1 01 Mar 10:17:08 10:18:39 12° 86° (E) 10:20:24 145.980
ANTELSAT 01 Mar 10:26:52 10:31:17 87° 77° (ENE) 10:35:39 437.575/2403.000
QB50P1 01 Mar 10:27:36 10:31:45 51° 72° (ENE) 10:35:57 145.935-145.965
DOVE 4 01 Mar 10:28:30 10:32:43 47° 289° (WNW) 10:36:44 437.250
FUNcube-1 01 Mar 10:29:05 10:32:56 37° 97° (E) 10:36:49 145.935
ZACube-1 01 Mar 10:29:42 10:33:36 38° 97° (E) 10:37:30 437.345
QB50P2 01 Mar 10:30:49 10:35:01 56° 72° (ENE) 10:39:14 145.880/145.840
SEEDS 01 Mar 10:33:46 10:37:39 36° 290° (WNW) 10:41:31 437.485
CANX-2 01 Mar 10:34:36 10:38:18 28° 292° (WNW) 10:41:55 2200.000
UKube-1 01 Mar 10:40:41 10:44:52 44° 99° (E) 10:49:02 .
UWE-3 01 Mar 10:45:07 10:49:16 68° 101° (E) 10:53:25 435.000/436.395/437.385
HUMSAT D 01 Mar 10:45:42 10:49:21 30° 95° (E) 10:53:01 437.325/437.525
BUGSAT 1 01 Mar 10:46:15 10:50:28 61° 73° (ENE) 10:54:42 437.445
DUCHIFAT 1 01 Mar 10:47:15 10:51:32 81° 75° (ENE) 10:55:50 145.980
O/OREOS (USA 219) 01 Mar 10:47:24 10:51:57 70° 297° (WNW) 10:56:34 437.305
CINEMA 3 01 Mar 10:48:15 10:52:23 53° 288° (WNW) 10:56:25 145.822/145.860
SO-50 01 Mar 10:52:23 10:57:19 70° 50° (NE) 11:02:16 436.795
CUTE 1.7 + AOD 2 01 Mar 10:53:49 10:57:03 21° 295° (WNW) 11:00:12 437.475
50 SAT 01 Mar 10:59:22 11:02:50 29° 95° (E) 11:06:21 437.505
POLYITAN 1 01 Mar 11:05:40 11:09:56 64° 259° (W) 11:14:13 437.675
POPSAT HIP 1 01 Mar 11:07:00 11:11:16 63° 259° (W) 11:15:32 437.405
HO-68 01 Mar 11:13:12 11:19:35 35° 300° (WNW) 11:25:51 435.675
BRITE-PL 01 Mar 11:13:18 11:15:03 12° 304° (NW) 11:16:34 437.365/2234.400
RS-15 01 Mar 11:15:25 11:24:28 27° 256° (WSW) 11:33:18 29.354- 29.394
CUBEBUG 2 01 Mar 11:19:30 11:23:29 43° 289° (WNW) 11:27:25 437.445
Oscar 11 01 Mar 11:23:58 11:27:49 31° 292° (WNW) 11:31:37 145.826/435.025
DELFI C3 01 Mar 11:24:46 11:28:30 34° 291° (WNW) 11:32:11 145.870
UNISAT 6 01 Mar 11:25:59 11:29:39 25° 266° (W) 11:33:13 437.425
GOMX 1 01 Mar 11:26:03 11:27:45 12° 303° (WNW) 11:29:14 467.674
ISS 01 Mar 11:28:46 11:32:00 73° 337° (NNW) 11:35:15 145.825
NANOSAT C BR1 01 Mar 11:31:15 11:35:13 35° 263° (W) 11:39:10 145.865
Oscar 19 01 Mar 11:35:22 11:37:35 13° 56° (NE) 11:40:00 437.125/150
DANDE 01 Mar 11:40:46 11:43:36 52° 77° (ENE) 11:46:08 436.750
AISAT 01 Mar 11:41:07 11:45:37 84° 104° (ESE) 11:50:03 437.250
AAUSAT CUBESAT 2 01 Mar 11:45:15 11:46:29 11° 300° (WNW) 11:47:31 437.432
DX 1 01 Mar 11:45:18 11:49:24 39° 291° (WNW) 11:53:28 434.975-435.025
CUBEBUG 1 01 Mar 11:50:08 11:54:25 47° 98° (E) 11:58:40 437.445
VELOX 1 01 Mar 11:51:25 11:55:55 79° 286° (WNW) 12:00:20 145.980
TIGRISAT 01 Mar 11:53:22 11:55:50 14° 272° (W) 11:58:07 435.000
GONETS M04 01 Mar 11:54:29 12:00:33 20° 282° (WNW) 12:06:15
ESTCUBE 1 01 Mar 12:01:03 12:05:37 67° 102° (ESE) 12:10:09 437.505/2401.250
QB50P1 01 Mar 12:05:05 12:08:00 17° 270° (W) 12:10:46 145.935-145.965
FUNcube-1 01 Mar 12:05:51 12:09:08 22° 294° (WNW) 12:12:21 145.935
ZACube-1 01 Mar 12:06:34 12:09:49 22° 294° (WNW) 12:12:59 437.345
ANTELSAT 01 Mar 12:08:14 12:08:48 10° 275° (W) 12:09:05 437.575/2403.000
QB50P2 01 Mar 12:08:39 12:11:20 16° 271° (W) 12:13:54 145.880/145.840
UKube-1 01 Mar 12:17:26 12:20:47 21° 296° (WNW) 12:24:02 .
CUSAT 1 01 Mar 12:19:56 12:22:08 22° 266° (W) 12:24:15 437.405
HUMSAT D 01 Mar 12:21:37 12:25:06 26° 293° (WNW) 12:28:31 437.325/437.525
UWE-3 01 Mar 12:23:13 12:25:22 14° 299° (WNW) 12:27:22 435.000/436.395/437.385
BUGSAT 1 01 Mar 12:23:56 12:26:25 15° 271° (W) 12:28:44 437.445
DUCHIFAT 1 01 Mar 12:26:49 12:28:03 11° 274° (W) 12:29:02 145.980
SPROUT 01 Mar 12:28:34 12:32:25 32° 95° (E) 12:36:17 437.525
O/OREOS (USA 219) 01 Mar 12:30:26 12:32:22 12° 319° (NW) 12:34:08 437.305
Gurwin Techsat 1B 01 Mar 12:33:25 12:35:24 12° 55° (NE) 12:37:37 435.225
SO-50 01 Mar 12:33:54 12:37:27 19° 248° (WSW) 12:40:51 436.795
50 SAT 01 Mar 12:34:30 12:37:48 25° 293° (WNW) 12:41:02 437.505
TISAT 1 01 Mar 12:37:53 12:41:47 35° 97° (E) 12:45:41 437.305
ISS 01 Mar 13:05:46 13:08:45 33° 356° (N) 13:11:45 145.825
ITAMSAT 1 01 Mar 13:06:58 13:11:22 29° 64° (ENE) 13:15:52 435.822/435.867
Oscar 19 01 Mar 13:11:03 13:16:12 79° 75° (ENE) 13:21:22 437.125/150
SWISSCUBE 01 Mar 13:11:06 13:13:57 16° 88° (E) 13:16:59 437.505
AISAT 01 Mar 13:19:31 13:21:39 13° 301° (WNW) 13:23:36 437.250
BEESAT 01 Mar 13:19:46 13:22:57 18° 89° (E) 13:26:16 436.000
CUBEBUG 1 01 Mar 13:27:10 13:30:31 21° 296° (WNW) 13:33:45 437.445
VELOX 1 01 Mar 13:30:33 13:31:48 11° 303° (WNW) 13:32:50 145.980
ESTCUBE 1 01 Mar 13:39:07 13:42:02 17° 299° (WNW) 13:44:49 437.505/2401.250
AO-7 01 Mar 13:39:10 13:44:52 22° 46° (NE) 13:50:50 29.400- 29.500
ITUPSAT 1 01 Mar 13:45:30 13:49:43 30° 95° (E) 13:53:59 437.325
SPROUT 01 Mar 14:04:46 14:08:28 28° 293° (WNW) 14:12:04 437.525
Gurwin Techsat 1B 01 Mar 14:09:15 14:14:32 70° 73° (ENE) 14:19:52 435.225
TISAT 1 01 Mar 14:13:59 14:17:29 25° 294° (WNW) 14:20:52 437.305
JAS-2 01 Mar 14:26:14 14:29:04 14° 51° (NE) 14:32:17 435.910
ISS 01 Mar 14:42:28 14:45:37 46° 16° (NNE) 14:48:46 145.825
ITAMSAT 1 01 Mar 14:45:43 14:50:43 44° 262° (W) 14:55:44 435.822/435.867
SWISSCUBE 01 Mar 14:47:35 14:52:23 67° 287° (WNW) 14:57:09 437.505
Oscar 19 01 Mar 14:53:17 14:56:16 15° 273° (W) 14:59:01 437.125/150
BEESAT 01 Mar 14:56:31 15:01:16 60° 289° (WNW) 15:05:59 436.000
HORYU 2 01 Mar 14:57:25 15:01:44 56° 72° (ENE) 15:06:06 437.375
YUBILEINY 01 Mar 15:00:29 15:04:46 15° 74° (ENE) 15:09:35 435.215
ITUPSAT 1 01 Mar 15:23:16 15:27:42 36° 293° (WNW) 15:32:03 437.325
AO-7 01 Mar 15:28:12 15:36:30 75° 68° (ENE) 15:44:50 29.400- 29.500
KKS-1 01 Mar 15:30:04 15:34:31 68° 101° (E) 15:38:56 437.445
STARS 01 Mar 15:39:39 15:43:59 56° 100° (E) 15:48:18 437.465
Gurwin Techsat 1B 01 Mar 15:51:32 15:55:09 18° 272° (W) 15:58:34 435.225
JAS-2 01 Mar 16:07:33 16:13:01 73° 73° (ENE) 16:19:14 435.910
ISS 01 Mar 16:18:58 16:22:03 41° 215° (SW) 16:25:07 145.825
Cubesat XI-IV 01 Mar 16:25:19 16:28:08 15° 56° (NE) 16:31:11 437.490
SWISSCUBE 01 Mar 16:28:28 16:29:26 10° 305° (NW) 16:30:09 437.505
MOZHAYETS 4 01 Mar 16:32:33 16:35:42 18° 89° (E) 16:39:00
CUTE-I 01 Mar 16:34:06 16:37:25 17° 58° (ENE) 16:40:56 437.470
HORYU 2 01 Mar 16:35:53 16:38:49 17° 270° (W) 16:41:36 437.375
M-CUBED/EXP-1 PRIME 01 Mar 16:38:47 16:42:09 23° 100° (E) 16:45:47 437.505
AUBIESAT-1 01 Mar 16:41:55 16:45:15 23° 100° (E) 16:48:51 437.475
YUBILEINY 01 Mar 16:51:29 17:00:07 72° 95° (E) 17:08:54 435.215
KKS-1 01 Mar 17:08:00 17:10:42 16° 299° (WNW) 17:13:17 437.445
STARS 01 Mar 17:17:05 17:20:06 18° 298° (WNW) 17:22:59 437.465
BEESAT 2 01 Mar 17:20:55 17:22:58 14° 111° (ESE) 17:25:12 435.950
AO-7 01 Mar 17:23:11 17:30:09 28° 269° (W) 17:36:55 29.400- 29.500
AIST 1 01 Mar 17:49:04 17:52:08 18° 67° (ENE) 17:55:17
JAS-2 01 Mar 17:55:16 17:59:06 18° 276° (W) 18:02:58 435.910
Cubesat XI-IV 01 Mar 18:02:09 18:07:31 84° 76° (ENE) 18:12:58 437.490
PRISM 01 Mar 18:08:12 18:10:05 13° 88° (E) 18:12:09 437.425
MOZHAYETS 4 01 Mar 18:08:47 18:13:20 54° 288° (WNW) 18:17:51
CUTE-I 01 Mar 18:11:31 18:16:54 83° 254° (WSW) 18:22:20 437.470
M-CUBED/EXP-1 PRIME 01 Mar 18:13:19 18:17:11 40° 295° (WNW) 18:21:19 437.505
HO-68 01 Mar 18:13:39 18:16:54 14° 45° (NE) 18:20:27 435.675
AUBIESAT-1 01 Mar 18:16:20 18:20:14 41° 295° (WNW) 18:24:24 437.475
CUBESAT XI-V 01 Mar 18:27:38 18:31:19 23° 91° (E) 18:35:04 437.345
BEESAT 3 01 Mar 18:32:22 18:36:28 78° 125° (SE) 18:40:39 437.485
AIST 2 01 Mar 18:47:23 18:51:21 39° 119° (ESE) 18:55:23 435.215
YUBILEINY 01 Mar 18:50:22 18:57:54 30° 298° (WNW) 19:05:17 435.215
PHONESAT 2.4 01 Mar 18:52:52 18:53:47 11° 153° (SSE) 18:54:48 2401.200-2431.200
VERMONT LUNAR 01 Mar 18:56:00 18:58:19 17° 160° (SSE) 19:00:39 437.305
BEESAT 2 01 Mar 18:56:32 19:00:40 73° 308° (NW) 19:04:52 435.950
BRITE-PL 01 Mar 19:08:09 19:12:28 24° 64° (ENE) 19:16:46 437.365/2234.400
O/OREOS (USA 219) 01 Mar 19:15:24 19:19:52 46° 59° (ENE) 19:24:17 437.305
GOMX 1 01 Mar 19:19:37 19:23:22 21° 63° (ENE) 19:27:09 467.674
AIST 1 01 Mar 19:25:51 19:30:09 48° 266° (W) 19:34:23
AAUSAT CUBESAT 2 01 Mar 19:29:10 19:30:00 11° 59° (ENE) 19:31:00 437.432
COMPASS 1 01 Mar 19:29:54 19:31:34 12° 61° (ENE) 19:33:25 437.405
STRAND 1 01 Mar 19:41:41 19:46:50 66° 101° (ESE) 19:51:58 437.568
PRISM 01 Mar 19:41:54 19:46:07 67° 287° (WNW) 19:50:19 437.425
Cubesat XI-IV 01 Mar 19:45:22 19:48:26 15° 274° (W) 19:51:15 437.490
SEEDS 01 Mar 19:53:36 19:56:58 25° 67° (ENE) 20:00:26 437.485
CANX-2 01 Mar 19:54:34 19:58:18 32° 68° (ENE) 20:02:05 2200.000
CUTE-I 01 Mar 19:55:41 19:57:57 12° 276° (W) 19:59:54 437.470
HO-68 01 Mar 19:56:21 20:03:15 56° 66° (ENE) 20:10:15 435.675
DOVE 4 01 Mar 19:59:12 20:03:36 30° 67° (ENE) 20:07:52 437.250
CUBESAT XI-V 01 Mar 20:04:29 20:09:01 45° 290° (WNW) 20:13:29 437.345
BEESAT 3 01 Mar 20:12:03 20:15:05 19° 326° (NW) 20:18:05 437.485
UWE-3 01 Mar 20:12:40 20:13:23 10° 59° (ENE) 20:14:20 435.000/436.395/437.385
CUTE 1.7 + AOD 2 01 Mar 20:13:02 20:17:02 44° 71° (ENE) 20:21:04 437.475
CINEMA 3 01 Mar 20:16:21 20:20:05 24° 66° (ENE) 20:23:47 145.822/145.860
PCSat 01 Mar 20:24:46 20:28:02 17° 106° (ESE) 20:31:33 145.827
AIST 2 01 Mar 20:26:12 20:30:03 31° 318° (NW) 20:33:55 435.215
PHONESAT 2.4 01 Mar 20:28:30 20:31:32 25° 168° (SSE) 20:34:36 2401.200-2431.200
VERMONT LUNAR 01 Mar 20:32:36 20:35:40 28° 176° (S) 20:38:44 437.305
BEESAT 2 01 Mar 20:37:04 20:39:36 15° 329° (NNW) 20:42:06 435.950
DELFI C3 01 Mar 20:41:06 20:44:12 22° 66° (ENE) 20:47:24 145.870
CUBEBUG 2 01 Mar 20:44:35 20:48:12 25° 67° (ENE) 20:51:49 437.445
BRITE-PL 01 Mar 20:45:03 20:50:39 60° 260° (W) 20:56:02 437.365/2234.400
Oscar 11 01 Mar 20:45:32 20:49:19 32° 68° (ENE) 20:53:11 145.826/435.025
O/OREOS (USA 219) 01 Mar 20:55:26 20:59:02 22° 257° (WSW) 21:02:30 437.305
GOMX 1 01 Mar 20:55:44 21:01:07 66° 259° (W) 21:06:15 467.674
AAUSAT CUBESAT 2 01 Mar 21:00:54 21:05:02 89° 77° (ENE) 21:09:13 437.432
COMPASS 1 01 Mar 21:02:36 21:06:45 78° 258° (WSW) 21:10:56 437.405
GONETS M04 01 Mar 21:06:51 21:12:54 23° 79° (E) 21:19:17
AISAT 01 Mar 21:07:45 21:10:09 15° 60° (ENE) 21:12:41 437.250
DX 1 01 Mar 21:07:51 21:11:40 30° 66° (ENE) 21:15:32 434.975-435.025
VELOX 1 01 Mar 21:17:17 21:20:07 17° 62° (ENE) 21:23:06 145.980
STRAND 1 01 Mar 21:21:52 21:25:37 20° 300° (WNW) 21:29:13 437.568
FUNcube-1 01 Mar 21:27:37 21:31:45 43° 71° (ENE) 21:35:50 145.935
ZACube-1 01 Mar 21:28:26 21:32:36 45° 71° (ENE) 21:36:42 437.345
SEEDS 01 Mar 21:28:51 21:32:41 34° 264° (W) 21:36:31 437.485
ESTCUBE 1 01 Mar 21:30:06 21:31:44 12° 58° (ENE) 21:33:34 437.505/2401.250
CANX-2 01 Mar 21:30:42 21:34:17 26° 266° (W) 21:37:51 2200.000
DOVE 4 01 Mar 21:36:27 21:41:16 39° 263° (W) 21:45:52 437.250
UKube-1 01 Mar 21:38:17 21:42:32 56° 72° (ENE) 21:46:50 .
HUMSAT D 01 Mar 21:40:34 21:44:18 32° 69° (ENE) 21:48:03 437.325/437.525
UWE-3 01 Mar 21:44:52 21:49:20 81° 77° (ENE) 21:53:41 435.000/436.395/437.385
HO-68 01 Mar 21:45:00 21:51:22 33° 266° (W) 21:57:40 435.675
50 SAT 01 Mar 21:49:03 21:52:27 28° 68° (ENE) 21:55:53 437.505
CUTE 1.7 + AOD 2 01 Mar 21:50:10 21:53:14 19° 269° (W) 21:56:12 437.475
CINEMA 3 01 Mar 21:52:31 21:57:07 44° 262° (W) 22:01:31 145.822/145.860
PCSat 01 Mar 22:05:26 22:10:52 81° 303° (WNW) 22:16:21 145.827
PHONESAT 2.4 01 Mar 22:06:19 22:09:31 29° 185° (S) 22:12:43 2401.200-2431.200
VERMONT LUNAR 01 Mar 22:10:16 22:13:06 23° 193° (SSW) 22:15:55 437.305
DELFI C3 01 Mar 22:15:31 22:19:15 36° 263° (W) 22:23:01 145.870
ANTELSAT 01 Mar 22:17:27 22:19:40 14° 88° (E) 22:22:04 437.575/2403.000
CUBEBUG 2 01 Mar 22:20:33 22:24:48 38° 263° (W) 22:28:53 437.445
Oscar 11 01 Mar 22:21:50 22:25:33 27° 266° (W) 22:29:14 145.826/435.025
DUCHIFAT 1 01 Mar 22:32:13 22:32:56 10° 86° (E) 22:33:55 145.980
AISAT 01 Mar 22:41:44 22:46:15 76° 258° (WSW) 22:50:46 437.250
DX 1 01 Mar 22:43:57 22:47:53 31° 264° (W) 22:51:49 434.975-435.025
CUBEBUG 1 01 Mar 22:48:56 22:53:18 57° 72° (ENE) 22:57:42 437.445
POLYITAN 1 01 Mar 22:49:31 22:52:16 17° 90° (E) 22:55:08 437.675
POPSAT HIP 1 01 Mar 22:50:33 22:53:19 17° 90° (E) 22:56:12 437.405
VELOX 1 01 Mar 22:51:50 22:56:18 62° 259° (W) 23:00:47 145.980
GONETS M04 01 Mar 23:00:04 23:08:46 85° 279° (W) 23:17:32
ESTCUBE 1 01 Mar 23:03:25 23:07:57 86° 75° (ENE) 23:12:32 437.505/2401.250
FUNcube-1 01 Mar 23:05:02 23:08:20 20° 269° (W) 23:11:29 145.935
ZACube-1 01 Mar 23:05:59 23:09:14 19° 269° (W) 23:12:19 437.345
NANOSAT C BR1 01 Mar 23:13:29 23:17:11 29° 95° (E) 23:20:54 145.865
UNISAT 6 01 Mar 23:14:03 23:18:16 52° 100° (E) 23:22:30 437.425
DANDE 01 Mar 23:15:08 23:17:07 12° 89° (E) 23:19:19 436.750
UKube-1 01 Mar 23:16:17 23:19:06 16° 270° (W) 23:21:47 .
HUMSAT D 01 Mar 23:16:38 23:20:10 25° 266° (W) 23:23:37 437.325/437.525
50 SAT 01 Mar 23:24:01 23:27:27 27° 265° (W) 23:30:51 437.505
UWE-3 01 Mar 23:25:00 23:26:30 11° 274° (W) 23:27:46 435.000/436.395/437.385
SPROUT 01 Mar 23:25:30 23:29:28 36° 69° (ENE) 23:33:29 437.525
RS-15 01 Mar 23:29:20 23:39:16 45° 112° (ESE) 23:49:30 29.354- 29.394
TISAT 1 01 Mar 23:32:56 23:36:55 39° 70° (ENE) 23:40:57 437.305
TIGRISAT 01 Mar 23:39:37 23:43:55 86° 286° (WNW) 23:48:14 435.000
PHONESAT 2.4 01 Mar 23:45:02 23:47:23 16° 202° (SSW) 23:49:41 2401.200-2431.200
QB50P1 01 Mar 23:45:45 23:49:59 65° 101° (ESE) 23:54:10 145.935-145.965
CUSAT 1 01 Mar 23:47:47 23:52:41 26° 95° (E) 23:56:45 437.405
QB50P2 01 Mar 23:49:13 23:53:29 72° 102° (ESE) 23:57:41 145.880/145.840
PCSat 01 Mar 23:51:12 23:55:12 20° 326° (NW) 23:59:07 145.827
ANTELSAT 01 Mar 23:52:43 23:56:58 62° 287° (WNW) 00:01:15 437.575/2403.000
BUGSAT 1 02 Mar 00:01:19 00:05:31 71° 102° (ESE) 00:09:37 437.445
DUCHIFAT 1 02 Mar 00:05:13 00:09:29 81° 283° (WNW) 00:13:40 145.980
SWISSCUBE 02 Mar 00:20:16 00:24:11 26° 64° (ENE) 00:28:11 437.505
POLYITAN 1 02 Mar 00:24:26 00:28:33 49° 289° (WNW) 00:32:37 437.675
POPSAT HIP 1 02 Mar 00:25:27 00:29:34 49° 288° (WNW) 00:33:37 437.405
CUBEBUG 1 02 Mar 00:27:09 00:30:05 17° 271° (W) 00:32:53 437.445
BEESAT 02 Mar 00:28:55 00:32:57 29° 65° (ENE) 00:37:06 436.000
ESTCUBE 1 02 Mar 00:44:08 00:45:35 11° 275° (W) 00:46:47 437.505/2401.250
NANOSAT C BR1 02 Mar 00:49:21 00:53:02 29° 293° (WNW) 00:56:39 145.865
UNISAT 6 02 Mar 00:51:48 00:54:45 18° 297° (WNW) 00:57:36 437.425
DANDE 02 Mar 00:53:27 01:00:16 77° 100° (E) 01:05:21 436.750
ITUPSAT 1 02 Mar 00:55:03 00:59:37 48° 70° (ENE) 01:04:16 437.325
KKS-1 02 Mar 00:57:46 00:59:23 12° 58° (ENE) 01:01:11 437.445
GONETS M04 02 Mar 01:00:45 01:07:13 21° 304° (NW) 01:13:23
SPROUT 02 Mar 01:02:05 01:05:41 24° 267° (W) 01:09:14 437.525
TISAT 1 02 Mar 01:09:31 01:12:55 22° 268° (W) 01:16:14 437.305
BEESAT 3 02 Mar 01:11:38 01:14:47 20° 36° (NE) 01:17:56 437.485
SO-50 02 Mar 01:13:56 01:14:29 10° 108° (ESE) 01:15:17 436.795
TIGRISAT 02 Mar 01:18:55 01:20:04 11° 301° (WNW) 01:21:02 435.000
Oscar 19 02 Mar 01:20:24 01:24:18 22° 91° (E) 01:28:18 437.125/150
QB50P1 02 Mar 01:22:56 01:25:25 15° 299° (WNW) 01:27:45 145.935-145.965
QB50P2 02 Mar 01:26:40 01:28:54 14° 299° (WNW) 01:30:58 145.880/145.840
AIST 2 02 Mar 01:28:49 01:31:14 15° 29° (NNE) 01:33:45 435.215
CUSAT 1 02 Mar 01:29:38 01:35:32 45° 284° (WNW) 01:39:59 437.405
BEESAT 2 02 Mar 01:35:57 01:39:31 26° 40° (NE) 01:43:04 435.950
BUGSAT 1 02 Mar 01:38:21 01:40:30 14° 300° (WNW) 01:42:29 437.445
RS-15 02 Mar 01:40:29 01:51:19 64° 316° (NW) 02:02:25 29.354- 29.394
DUCHIFAT 1 02 Mar 01:44:20 01:44:39 10° 302° (WNW) 01:44:45 145.980
SWISSCUBE 02 Mar 01:57:20 02:01:53 42° 262° (W) 02:06:26 437.505
BEESAT 02 Mar 02:06:16 02:10:43 37° 263° (W) 02:15:10 436.000
Gurwin Techsat 1B 02 Mar 02:23:13 02:27:17 22° 91° (E) 02:31:28 435.225
KKS-1 02 Mar 02:30:54 02:35:24 87° 76° (ENE) 02:39:55 437.445
ITUPSAT 1 02 Mar 02:34:03 02:37:49 22° 268° (W) 02:41:31 437.325
STARS 02 Mar 02:39:17 02:43:42 71° 74° (ENE) 02:48:08 437.465
DANDE 02 Mar 02:39:41 02:43:53 18° 293° (WNW) 02:47:16 436.750
BEESAT 3 02 Mar 02:49:10 02:53:19 69° 236° (WSW) 02:57:22 437.485
SO-50 02 Mar 02:49:37 02:54:14 76° 125° (SE) 02:59:02 436.795
ITAMSAT 1 02 Mar 02:55:20 03:00:28 53° 100° (E) 03:05:34 435.822/435.867
YUBILEINY 02 Mar 02:58:08 03:06:22 42° 68° (ENE) 03:14:40 435.215
Oscar 19 02 Mar 02:59:02 03:04:02 53° 290° (WNW) 03:09:00 437.125/150
AIST 2 02 Mar 03:06:25 03:10:43 65° 50° (NE) 03:14:55 435.215
BEESAT 2 02 Mar 03:13:53 03:17:53 45° 240° (WSW) 03:21:49 435.950
JAS-2 02 Mar 03:15:46 03:17:30 11° 79° (E) 03:19:53 435.910
PCSat 02 Mar 03:25:44 03:27:03 11° 18° (NNE) 03:28:29 145.827
AO-7 02 Mar 03:27:56 03:33:19 19° 86° (E) 03:39:05 29.400- 29.500
M-CUBED/EXP-1 PRIME 02 Mar 03:31:07 03:34:16 41° 65° (ENE) 03:37:34 437.505
AUBIESAT-1 02 Mar 03:33:47 03:36:53 39° 65° (ENE) 03:40:11 437.475
MOZHAYETS 4 02 Mar 03:37:23 03:41:01 25° 65° (ENE) 03:44:46
RS-15 02 Mar 03:56:43 04:06:22 33° 347° (NNW) 04:16:16 29.354- 29.394
Gurwin Techsat 1B 02 Mar 04:02:28 04:07:40 56° 290° (WNW) 04:12:51 435.225
KKS-1 02 Mar 04:11:36 04:12:48 11° 274° (W) 04:13:43 437.445
STARS 02 Mar 04:18:33 04:20:45 13° 273° (W) 04:22:46 437.465
HORYU 2 02 Mar 04:22:19 04:26:47 77° 103° (ESE) 04:31:14 437.375
SO-50 02 Mar 04:31:32 04:35:21 23° 326° (NNW) 04:39:12 436.795
ITAMSAT 1 02 Mar 04:35:28 04:39:41 25° 298° (WNW) 04:43:46 435.822/435.867
AIST 2 02 Mar 04:46:10 04:48:53 16° 248° (WSW) 04:51:26 435.215
YUBILEINY 02 Mar 04:55:00 05:03:28 51° 270° (W) 05:11:49 435.215
JAS-2 02 Mar 04:56:56 05:04:09 58° 99° (E) 05:11:51 435.910
PRISM 02 Mar 05:01:37 05:04:00 15° 61° (ENE) 05:06:33 437.425
PCSat 02 Mar 05:07:33 05:12:20 31° 42° (NE) 05:17:09 145.827
M-CUBED/EXP-1 PRIME 02 Mar 05:07:50 05:09:35 13° 265° (W) 05:11:13 437.505
AUBIESAT-1 02 Mar 05:10:15 05:12:08 14° 265° (W) 05:13:56 437.475
MOZHAYETS 4 02 Mar 05:13:46 05:18:05 41° 263° (W) 05:22:26
AO-7 02 Mar 05:19:08 05:27:31 84° 109° (ESE) 05:35:49 29.400- 29.500
STRAND 1 02 Mar 05:23:17 05:26:53 20° 60° (ENE) 05:30:38 437.568
CUBESAT XI-V 02 Mar 05:33:47 05:37:52 31° 67° (ENE) 05:42:02 437.345
